Domov               UVHVVR             MKGP            O straneh              
ZDRAVSTVENO VARSTVO RASTLIN
  MREŽA AGROMET. POSTAJ
 ► PROGNOSTIČNA OBVESTILA
AGROMETEOROLOŠKI PODATKI -
ARSO
OBVLADOVANJE TVEGANJ ZARADI
NEUGODNIH VREMENSKIH RAZMER
  ► NARAVNE NESREČE
  ► SUŠA/MOČA
  ► NAMAKANJE
  ► ŽLED (gozdarstvo)
KARTOGRAFSKI PRIKAZI
SPLETNE POVEZAVE
PROJEKTI IN PUBLIKACIJE

AGROMETEOROLOŠKA MREŽA: VREMENSKE POSTAJE IN FENOLOŠKA OPAZOVANJA

Pregled podatkov za lokacijo Češnjevek / Cerklje na Gorenjskem, meteorološka postaja 855696

Pregled senzorjev na lokaciji

ID Ime Zadnja
vrednost
Datum
zadnje
spremembe
Tip
senzorja
3854 Padavine (mm) 0 mm 14.12.2017 06:30 Rain-O-Matic
3855 Temperatura 2 m (°C) 2,95 °C 14.12.2017 06:30 50YA
3856 Relativna vlaga 2 m (% RH) 99,94 % RH 14.12.2017 06:30 50YA
3951 Omočenost lista (U) 6 U 14.12.2017 06:30 A730WET
3967 Temperatura 20 cm (°C) 1,86 °C 14.12.2017 06:30 50YA
3968 Relativna vlaga 20 cm (% RH) 100 % RH 14.12.2017 06:30 50YA
4185 Omočenost lista 20 cm (U) 10 U 14.12.2017 06:30 A730WET

Pregled podatkov zadnjih 24 ur

Zap.
št.
Datum in čas Češnjevek / Cerklje na Gorenjskem
Omočenost
lista
Omočenost
lista
20
cm
Padavine Relativna
vlaga
2
m
Relativna
vlaga
20
cm
Temperatura
2
m
Temperatura
20
cm
0 14.12.2017 06:30 6 10 0 99,94 100 2,95 1,86
1 14.12.2017 06:00 5 10 0 98,74 100 2,98 1,79
2 14.12.2017 05:30 3 10 0 98,69 100 2,86 1,66
3 14.12.2017 05:00 6 10 0 97,25 100 3,01 1,5
4 14.12.2017 04:30 10 10 0 100 100 1,93 0,67
5 14.12.2017 04:00 10 10 0 100 100 1,88 0,61
6 14.12.2017 03:30 10 10 0 100 100 1,47 0,69
7 14.12.2017 03:00 10 10 0 100 99,99 1,66 0,9
8 14.12.2017 02:30 10 10 0 100 99,99 1,69 0,85
9 14.12.2017 02:00 10 10 0 100 99,99 1,01 0,54
10 14.12.2017 01:30 10 10 0 100 100 0,84 0,33
11 14.12.2017 01:00 10 10 0 100 99,99 0,51 0,24
12 14.12.2017 00:30 10 10 0 100 100 0,29 0,12
13 14.12.2017 00:00 10 10 0 100 100 0,22 0,03
14 13.12.2017 23:30 10 10 0 100 100 0,19 -0,09
15 13.12.2017 23:00 10 10 0 100 100 0,47 0,25
16 13.12.2017 22:30 10 10 0 100 100 0,52 0,38
17 13.12.2017 22:00 10 10 0 100 100 0,54 0,34
18 13.12.2017 21:30 10 10 0 100 99,99 0,55 0,36
19 13.12.2017 21:00 10 10 0 100 100 0,59 0,36
20 13.12.2017 20:30 10 10 0 100 99,99 0,58 0,31
21 13.12.2017 20:00 10 10 0 100 100 0,64 0,18
22 13.12.2017 19:30 10 10 0 100 100 0,6 0,19
23 13.12.2017 19:00 10 10 0 100 99,99 0,84 0,4
24 13.12.2017 18:30 10 10 0 100 100 0,75 0,44
25 13.12.2017 18:00 9 10 0 100 100 0,61 0,31
26 13.12.2017 17:30 9 10 0 100 99,99 0,58 0,14
27 13.12.2017 17:00 10 8 0 100 99,99 0,89 0,06
28 13.12.2017 16:30 9 10 0 100 100 1,19 0,68
29 13.12.2017 16:00 7 10 0 99,98 100 1,37 1,01
30 13.12.2017 15:30 9 10 0 100 100 1,36 1,2
31 13.12.2017 15:00 9 10 0 100 99,99 1,38 1,1
32 13.12.2017 14:30 9 10 0 100 100 1,23 1,24
33 13.12.2017 14:00 9 10 0 100 100 1,19 1,64
34 13.12.2017 13:30 7 10 0,2 100 100 1,15 1,66
35 13.12.2017 13:00 9 10 0 100 100 0,99 1,2
36 13.12.2017 12:30 9 10 0,8 100 100 1 1,39
37 13.12.2017 12:00 9 10 1,4 100 100 0,96 1,37
38 13.12.2017 11:30 9 10 1,2 100 100 0,91 1,24
39 13.12.2017 11:00 9 10 0,6 100 99,99 0,54 0,47
40 13.12.2017 10:30 8 10 0,2 100 100 0,43 0,48
41 13.12.2017 10:00 8 10 0,2 100 99,99 0,29 0,28
42 13.12.2017 09:30 6 10 0,2 100 99,99 0,18 0,18
43 13.12.2017 09:00 9 10 0 100 100 0,14 0,14
44 13.12.2017 08:30 9 10 0 100 100 0,08 0,06
45 13.12.2017 08:00 7 10 0 100 100 0,07 0,04
46 13.12.2017 07:30 8 10 0 100 100 0,11 0,07
© 2011 Ministrstvo za kmetijstvo, gozdarstvo in prehrano. Vse pravice pridržane.